EW2804 Weather Reports


time (UTC)temp
C
wind
direction
speed
KPH
gust
KPH
rain 1hr
cm
rain 24hr
cm
rain mn
cm
humidity
%
barometer
mb
20260902005217 35 125 1.6 6.4 0.00 0.00 0.00 40 1010.4
20260902004231 35 185 1.6 6.4 0.00 0.00 0.00 39 1010.5
20260902003233 36 163 1.6 6.4 0.00 0.00 0.00 39 1010.5
20260902002224 36 248 1.6 6.4 0.00 0.00 0.00 37 1010.6
20260902001210 36 206 0.0 6.4 0.00 0.00 0.00 35 1010.6
20260901235006 37 117 1.6 8.0 0.00 0.00 0.00 35 1010.7
20260901234006 37 99 1.6 11.3 0.00 0.00 0.00 34 1010.8
20260901232938 37 42 3.2 11.3 0.00 0.00 0.00 35 1010.8
20260901231936 37 157 3.2 11.3 0.00 0.00 0.00 35 1010.9
20260901230948 37 103 1.6 9.7 0.00 0.00 0.00 34 1010.9
20260901225923 37 125 1.6 14.5 0.00 0.00 0.00 34 1010.9
20260901224913 37 113 3.2 14.5 0.00 0.00 0.00 34 1011.0
20260901222817 38 128 1.6 12.9 0.00 0.00 0.00 33 1011.0
20260901221745 38 36 1.6 9.7 0.00 0.00 0.00 33 1011.0
20260901220714 37 150 1.6 9.7 0.00 0.00 0.00 33 1011.0
20260901215736 37 212 3.2 12.9 0.00 0.00 0.00 33 1011.1
20260901214704 37 74 3.2 14.5 0.00 0.00 0.00 35 1011.3
20260901213634 37 56 1.6 14.5 0.00 0.00 0.00 35 1011.3
20260901212639 37 130 0.0 8.0 0.00 0.00 0.00 35 1011.4
20260901211614 36 194 3.2 6.4 0.00 0.00 0.00 37 1011.5
20260901210540 37 56 1.6 9.7 0.00 0.00 0.00 36 1011.7
20260901205509 37 9 3.2 11.3 0.00 0.00 0.00 36 1011.7
20260901204446 37 152 3.2 12.9 0.00 0.00 0.00 35 1011.8
20260901203441 37 205 3.2 12.9 0.00 0.00 0.00 36 1011.9
20260901201356 37 65 3.2 11.3 0.00 0.00 0.00 38 1012.1
20260901200336 37 43 3.2 11.3 0.00 0.00 0.00 38 1012.2
20260901195318 37 82 3.2 12.9 0.00 0.00 0.00 38 1012.4
20260901194248 37 135 3.2 12.9 0.00 0.00 0.00 38 1012.5
20260901193310 37 150 3.2 11.3 0.00 0.00 0.00 39 1012.6
20260901192325 37 194 3.2 12.9 0.00 0.00 0.00 36 1012.7
20260901191311 37 115 3.2 12.9 0.00 0.00 0.00 38 1012.8
20260901190255 37 198 3.2 11.3 0.00 0.00 0.00 39 1013.0
20260901185314 36 227 3.2 12.9 0.00 0.00 0.00 38 1013.2
20260901184309 37 197 3.2 17.7 0.00 0.00 0.00 40 1013.4
20260901183307 36 215 4.8 20.9 0.00 0.00 0.00 40 1013.6
20260901182248 36 79 3.2 20.9 0.00 0.00 0.00 41 1013.7
20260901180116 36 119 3.2 9.7 0.00 0.00 0.00 40 1014.0
20260901175107 36 123 1.6 12.9 0.00 0.00 0.00 41 1014.1
20260901174110 35 220 3.2 12.9 0.00 0.00 0.00 43 1014.2
20260901171853 36 76 3.2 9.7 0.00 0.00 0.00 43 1014.5
20260901170906 35 236 1.6 11.3 0.00 0.00 0.00 45 1014.7
20260901165848 35 129 3.2 11.3 0.00 0.00 0.00 44 1014.8
20260901163805 35 150 1.6 11.3 0.00 0.00 0.00 45 1015.0
20260901162740 34 173 1.6 6.4 0.00 0.00 0.00 47 1015.1
20260901161751 34 120 3.2 9.7 0.00 0.00 0.00 47 1015.1
20260901160743 34 151 1.6 9.7 0.00 0.00 0.00 46 1015.2
20260901155738 33 122 1.6 9.7 0.00 0.00 0.00 49 1015.2
20260901154735 33 199 1.6 9.7 0.00 0.00 0.00 50 1015.2
20260901153700 33 119 1.6 6.4 0.00 0.00 0.00 52 1015.0
20260901152623 32 257 1.6 6.4 0.00 0.00 0.00 53 1015.0
20260901151621 32 259 1.6 4.8 0.00 0.00 0.00 54 1015.0
20260901150627 31 188 1.6 4.8 0.00 0.00 0.00 55 1015.2
20260901145644 31 111 0.0 4.8 0.00 0.00 0.00 56 1015.2
20260901144644 31 185 0.0 3.2 0.00 0.00 0.00 57 1015.1
20260901141343 30 140 1.6 4.8 0.00 0.00 0.00 61 1015.3
20260901135127 28 219 0.0 3.2 0.00 0.00 0.00 66 1015.3
20260901134050 27 250 0.0 0.0 0.00 0.00 0.00 70 1015.2
20260901133036 26 220 0.0 0.0 0.00 0.00 0.00 74 1015.2
20260901130828 24 240 0.0 0.0 0.00 0.00 0.00 79 1014.9
20260901125831 24 169 0.0 0.0 0.00 0.00 0.00 79 1014.8
20260901124759 23 78 0.0 0.0 0.00 0.00 0.00 79 1014.7
20260901123730 23 78 0.0 0.0 0.00 0.00 0.00 78 1014.5
20260901122707 23 78 0.0 0.0 0.00 0.00 0.00 78 1014.5
20260901120617 23 78 0.0 0.0 0.00 0.00 0.00 76 1014.3
20260901115614 23 78 0.0 0.0 0.00 0.00 0.00 76 1014.3
20260901113504 24 78 0.0 0.0 0.00 0.00 0.00 74 1014.2
20260901112511 25 78 0.0 0.0 0.00 0.00 0.00 73 1014.2
20260901111459 25 78 0.0 0.0 0.00 0.00 0.00 72 1014.0
20260901110507 25 78 0.0 0.0 0.00 0.00 0.00 72 1013.9
20260901105459 25 78 0.0 0.0 0.00 0.00 0.00 71 1013.9
20260901104445 25 78 0.0 0.0 0.00 0.00 0.00 70 1013.8
20260901103440 25 78 0.0 0.0 0.00 0.00 0.00 71 1013.7
20260901102413 25 78 0.0 0.0 0.00 0.00 0.00 70 1013.6
20260901101351 25 78 0.0 0.0 0.00 0.00 0.00 69 1013.7
20260901100337 26 78 0.0 0.0 0.00 0.00 0.00 68 1013.7
20260901095331 26 78 0.0 0.0 0.00 0.00 0.00 68 1013.8
20260901094256 26 78 0.0 0.0 0.00 0.00 0.00 67 1013.8
20260901093245 26 78 0.0 0.0 0.00 0.00 0.00 66 1013.9
20260901092248 26 78 0.0 0.0 0.00 0.00 0.00 65 1013.9
20260901091307 26 78 0.0 0.0 0.00 0.00 0.00 65 1014.0
20260901090242 26 78 0.0 0.0 0.00 0.00 0.00 64 1013.9
20260901085225 27 78 0.0 0.0 0.00 0.00 0.00 63 1013.9
20260901084234 27 78 0.0 0.0 0.00 0.00 0.00 62 1013.9
20260901083223 27 78 0.0 1.6 0.00 0.00 0.00 61 1013.8
20260901082200 27 78 0.0 0.0 0.00 0.00 0.00 60 1013.7
20260901081214 27 78 0.0 0.0 0.00 0.00 0.00 60 1013.6
20260901080143 27 78 0.0 0.0 0.00 0.00 0.00 60 1013.5
20260901075203 27 78 0.0 1.6 0.00 0.00 0.00 61 1013.5
20260901074145 26 78 0.0 0.0 0.00 0.00 0.00 63 1013.5
20260901073152 26 78 0.0 0.0 0.00 0.00 0.00 64 1013.5
20260901072209 26 78 0.0 0.0 0.00 0.00 0.00 64 1013.5
20260901063746 24 59 0.0 0.0 0.00 0.00 0.00 68 1013.4
20260901062716 24 59 0.0 0.0 0.00 0.00 0.00 67 1013.3
20260901061726 24 59 0.0 0.0 0.00 0.00 0.00 67 1013.3
20260901060656 24 59 0.0 0.0 0.00 0.00 0.00 66 1013.1
20260901055634 24 59 0.0 0.0 0.00 0.00 0.00 66 1013.1
20260901054559 24 59 0.0 0.0 0.00 0.00 0.00 65 1013.0
20260901053614 24 59 0.0 0.0 0.00 0.00 0.00 65 1012.8
20260901050255 25 59 0.0 0.0 0.00 0.00 0.00 64 1012.5
20260901045228 25 59 0.0 0.0 0.00 0.00 0.00 64 1012.4
20260901044218 25 59 0.0 0.0 0.00 0.00 0.00 64 1012.4
20260901043224 25 59 0.0 0.0 0.00 0.00 0.00 61 1012.4
20260901042207 25 59 0.0 0.0 0.00 0.00 0.00 62 1012.4
20260901041135 25 59 0.0 0.0 0.00 0.00 0.00 62 1012.5
20260901040133 26 59 0.0 0.0 0.00 0.00 0.00 62 1012.5
20260901035155 26 59 0.0 0.0 0.00 0.00 0.00 61 1012.5
20260901034154 26 59 0.0 0.0 0.00 0.00 0.00 60 1012.4
20260901033123 26 59 0.0 0.0 0.00 0.00 0.00 60 1012.3
20260901032108 26 59 0.0 0.0 0.00 0.00 0.00 58 1012.4
20260901031125 26 59 0.0 0.0 0.00 0.00 0.00 57 1012.3
20260901030142 27 59 0.0 0.0 0.00 0.00 0.00 56 1012.3
20260901025157 27 59 0.0 0.0 0.00 0.00 0.00 57 1012.2
20260901024207 27 59 0.0 0.0 0.00 0.00 0.00 54 1012.0
20260901023212 27 59 0.0 0.0 0.00 0.00 0.00 54 1011.9
20260901022221 28 59 0.0 0.0 0.00 0.00 0.00 52 1011.8
20260901021200 28 59 0.0 0.0 0.00 0.00 0.00 50 1011.6
20260901020146 29 59 0.0 0.0 0.00 0.00 0.00 48 1011.6
20260901015158 30 59 0.0 0.0 0.00 0.00 0.00 48 1011.4
20260901014141 31 59 0.0 0.0 0.00 0.00 0.00 48 1011.3
20260901013143 32 59 0.0 0.0 0.00 0.00 0.00 42 1011.3
20260901012106 32 59 0.0 0.0 0.00 0.00 0.00 40 1011.2
20260901011059 33 59 0.0 0.0 0.00 0.00 0.00 37 1011.2
20260901010113 34 59 0.0 0.0 0.00 0.00 0.00 35 1011.2